CPA181 VHHH-YSSY

Flight info

Callsign CPA181
Flight time N/A
Altitude 40000
Route DALOL V652 SABNO/N0488F390 A583 KALAH/N0485F410 A583 ZAM A461 BUTPA DCT VEGPU DCT RUKSI DCT YUSEF DCT NOLES DCT 26S138E DCT OOM DCT APOMA Y52 VELGI Y105 TARAL Y59 TESAT
Aircraft A359/H-SDE2E3GHIJ3J4J5LM1ORWXY/LB1D1

Departure

Time N/A
Airport Hong Kong International Airport (VHHH)

Arrival

Time 2026-04-26 09:11
Airport Sydney Kingsford Smith International Airport (YSSY)
Time Latitude Longitude Altitude Speed Heading
2026-04-26 08:37 -34.02498 148.90265 39676 ft 483 kts 139°
2026-04-26 08:37 -34.22597 149.11769 40974 ft 481 kts 139°
2026-04-26 08:37 -34.36982 149.27008 39472 ft 482 kts 136°
2026-04-26 08:37 -34.39149 149.30060 39957 ft 478 kts 126°
2026-04-26 08:38 -34.40941 149.33446 40127 ft 479 kts 119°
2026-04-26 08:38 -34.42423 149.37082 40157 ft 482 kts 113°
2026-04-26 08:38 -34.44415 149.44791 40204 ft 485 kts 101°
2026-04-26 08:39 -34.45422 149.52861 40211 ft 485 kts 97°
2026-04-26 08:39 -34.49088 149.85739 40234 ft 485 kts 91°
2026-04-26 08:40 -34.48390 149.93828 40215 ft 483 kts 76°
2026-04-26 08:40 -34.46337 150.01570 40253 ft 481 kts 66°
2026-04-26 08:41 -34.44918 150.05177 40053 ft 475 kts 62°
2026-04-26 08:41 -34.43369 150.08667 39642 ft 469 kts 60°
2026-04-26 08:41 -34.41826 150.12083 39087 ft 462 kts 61°
2026-04-26 08:41 -34.40290 150.15488 38284 ft 453 kts 61°
2026-04-26 08:42 -34.38815 150.18780 37785 ft 444 kts 61°
2026-04-26 08:42 -34.37849 150.20946 37413 ft 444 kts 62°
2026-04-26 08:42 -34.35885 150.25356 36243 ft 450 kts 62°
2026-04-26 08:42 -34.34397 150.28702 35449 ft 449 kts 62°
2026-04-26 08:43 -34.32946 150.31969 34698 ft 437 kts 62°
2026-04-26 08:43 -34.31543 150.35127 33971 ft 427 kts 62°
2026-04-26 08:43 -34.30157 150.38246 33315 ft 417 kts 63°
2026-04-26 08:43 -34.28801 150.41286 32667 ft 408 kts 62°
2026-04-26 08:44 -34.27470 150.44267 31882 ft 403 kts 62°
2026-04-26 08:44 -34.26138 150.47232 31057 ft 399 kts 62°
2026-04-26 08:44 -34.24814 150.50137 30362 ft 401 kts 62°
2026-04-26 08:44 -34.23449 150.53120 29762 ft 404 kts 62°
2026-04-26 08:45 -34.22086 150.56094 29168 ft 406 kts 62°
2026-04-26 08:45 -34.20723 150.59065 28574 ft 407 kts 62°
2026-04-26 08:45 -34.19363 150.62035 27985 ft 407 kts 62°
2026-04-26 08:45 -34.17992 150.65033 27388 ft 407 kts 61°
2026-04-26 08:46 -34.16645 150.67993 26805 ft 407 kts 62°
2026-04-26 08:46 -34.15743 150.69987 26411 ft 407 kts 63°
2026-04-26 08:46 -34.14604 150.74271 25602 ft 406 kts 83°
2026-04-26 08:46 -34.14661 150.77679 25003 ft 406 kts 99°
2026-04-26 08:47 -34.15499 150.80899 24411 ft 405 kts 115°
2026-04-26 08:47 -34.17034 150.83694 23827 ft 406 kts 131°
2026-04-26 08:47 -34.19192 150.85904 23238 ft 407 kts 147°
2026-04-26 08:47 -34.21754 150.87294 22655 ft 408 kts 163°
2026-04-26 08:48 -34.24522 150.87775 22052 ft 399 kts 180°
2026-04-26 08:48 -34.26356 150.87544 21659 ft 392 kts 192°
2026-04-26 08:48 -34.29615 150.85783 20879 ft 381 kts 217°
2026-04-26 08:48 -34.31597 150.83783 20322 ft 373 kts 219°
2026-04-26 08:49 -34.33472 150.81657 19685 ft 364 kts 233°
2026-04-26 08:49 -34.34535 150.78955 19075 ft 355 kts 260°
2026-04-26 08:49 -34.34510 150.76096 18479 ft 345 kts 287°
2026-04-26 08:49 -34.33441 150.73595 17884 ft 334 kts 314°
2026-04-26 08:50 -34.31695 150.71817 17300 ft 326 kts 328°
2026-04-26 08:50 -34.29715 150.70509 16699 ft 319 kts 339°
2026-04-26 08:50 -34.27646 150.69647 16113 ft 314 kts 344°
2026-04-26 08:50 -34.25577 150.68875 15522 ft 311 kts 342°
2026-04-26 08:51 -34.21653 150.66823 14309 ft 307 kts 321°
2026-04-26 08:51 -34.20311 150.64874 13718 ft 307 kts 296°
2026-04-26 08:51 -34.19778 150.62440 13127 ft 306 kts 271°
2026-04-26 08:52 -34.20097 150.59930 12543 ft 303 kts 254°
2026-04-26 08:52 -34.20744 150.57520 11947 ft 301 kts 251°
2026-04-26 08:52 -34.21444 150.55164 11358 ft 298 kts 252°
2026-04-26 08:52 -34.21799 150.52740 10748 ft 293 kts 278°
2026-04-26 08:53 -34.21108 150.50507 10182 ft 286 kts 309°
2026-04-26 08:53 -34.19642 150.48967 9619 ft 280 kts 333°
2026-04-26 08:53 -34.17825 150.48241 9049 ft 275 kts 354°
2026-04-26 08:53 -34.15956 150.48378 8481 ft 273 kts 16°
2026-04-26 08:54 -34.14272 150.49373 8167 ft 266 kts 38°
2026-04-26 08:54 -34.13048 150.51015 8023 ft 260 kts 59°
2026-04-26 08:54 -34.12412 150.53009 7906 ft 252 kts 74°
2026-04-26 08:54 -34.11992 150.55019 7777 ft 245 kts 75°
2026-04-26 08:55 -34.11593 150.56992 7652 ft 238 kts 75°
2026-04-26 08:55 -34.11205 150.58893 7526 ft 231 kts 75°
2026-04-26 08:55 -34.10821 150.60738 7398 ft 225 kts 75°
2026-04-26 08:55 -34.10440 150.62549 7269 ft 218 kts 75°
2026-04-26 08:56 -34.10070 150.64293 7146 ft 212 kts 74°
2026-04-26 08:56 -34.09827 150.65436 7067 ft 208 kts 75°
2026-04-26 08:56 -34.09344 150.67691 6910 ft 218 kts 75°
2026-04-26 08:56 -34.08940 150.69565 6792 ft 240 kts 75°
2026-04-26 08:57 -34.08513 150.71545 6662 ft 243 kts 75°
2026-04-26 08:57 -34.08090 150.73505 6541 ft 243 kts 75°
2026-04-26 08:57 -34.07668 150.75464 6425 ft 242 kts 75°
2026-04-26 08:57 -34.07245 150.77422 6306 ft 241 kts 75°
2026-04-26 08:58 -34.06823 150.79376 6177 ft 241 kts 74°
2026-04-26 08:58 -34.06399 150.81337 6053 ft 240 kts 74°
2026-04-26 08:58 -34.05978 150.83281 5999 ft 239 kts 74°
2026-04-26 08:58 -34.05555 150.85233 5990 ft 240 kts 75°
2026-04-26 08:59 -34.05138 150.87155 5987 ft 241 kts 75°
2026-04-26 08:59 -34.04710 150.89128 5984 ft 241 kts 75°
2026-04-26 08:59 -34.04287 150.91072 5981 ft 242 kts 75°
2026-04-26 08:59 -34.03862 150.93030 5982 ft 242 kts 75°
2026-04-26 09:00 -34.03433 150.95003 5979 ft 241 kts 75°
2026-04-26 09:00 -34.03012 150.96936 5974 ft 240 kts 74°
2026-04-26 09:00 -34.02645 150.98888 5962 ft 240 kts 85°
2026-04-26 09:00 -34.02881 151.00865 5955 ft 241 kts 111°
2026-04-26 09:01 -34.03788 151.02557 5969 ft 241 kts 131°
2026-04-26 09:01 -34.04958 151.04022 5974 ft 243 kts 134°
2026-04-26 09:01 -34.06137 151.05460 5949 ft 243 kts 134°
2026-04-26 09:01 -34.07365 151.06909 5687 ft 244 kts 141°
2026-04-26 09:02 -34.08812 151.07938 5437 ft 243 kts 159°
2026-04-26 09:02 -34.10441 151.08484 5192 ft 241 kts 168°
2026-04-26 09:02 -34.12100 151.08893 4938 ft 241 kts 169°
2026-04-26 09:02 -34.13729 151.09290 4687 ft 240 kts 165°
2026-04-26 09:03 -34.15180 151.10231 4368 ft 238 kts 129°
2026-04-26 09:03 -34.15808 151.11968 4108 ft 226 kts 94°
2026-04-26 09:03 -34.15920 151.13832 3838 ft 219 kts 94°
2026-04-26 09:03 -34.16088 151.15646 3567 ft 214 kts 96°
2026-04-26 09:04 -34.16304 151.17387 3331 ft 211 kts 97°
2026-04-26 09:04 -34.16552 151.19142 3092 ft 209 kts 98°
2026-04-26 09:04 -34.16804 151.20815 2969 ft 198 kts 98°
2026-04-26 09:04 -34.17020 151.22407 2969 ft 190 kts 90°
2026-04-26 09:05 -34.16620 151.23825 2935 ft 180 kts 41°
2026-04-26 09:05 -34.15466 151.24283 2950 ft 179 kts 351°
2026-04-26 09:05 -34.14363 151.23593 2989 ft 181 kts 327°
2026-04-26 09:05 -34.13312 151.22885 2956 ft 164 kts 336°
2026-04-26 09:06 -34.12309 151.22401 2942 ft 147 kts 341°
2026-04-26 09:06 -34.11349 151.22032 2958 ft 144 kts 344°
2026-04-26 09:06 -34.10383 151.21716 2972 ft 144 kts 346°
2026-04-26 09:06 -34.09397 151.21426 2972 ft 144 kts 347°
2026-04-26 09:07 -34.08427 151.21155 2972 ft 144 kts 348°
2026-04-26 09:07 -34.07437 151.20889 2786 ft 144 kts 349°
2026-04-26 09:07 -34.06466 151.20639 2498 ft 143 kts 350°
2026-04-26 09:07 -34.05490 151.20383 2092 ft 145 kts 350°
2026-04-26 09:08 -34.04509 151.20099 1732 ft 143 kts 349°
2026-04-26 09:08 -34.03557 151.19853 1493 ft 140 kts 353°
2026-04-26 09:08 -34.02591 151.19649 1262 ft 141 kts 353°
2026-04-26 09:08 -34.01634 151.19411 1054 ft 139 kts 350°
2026-04-26 09:09 -34.00683 151.19154 938 ft 139 kts 351°
2026-04-26 09:09 -33.99732 151.18926 775 ft 140 kts 352°
2026-04-26 09:09 -33.98783 151.18669 539 ft 139 kts 349°
2026-04-26 09:09 -33.97834 151.18410 336 ft 138 kts 352°
2026-04-26 09:10 -33.96892 151.18178 160 ft 137 kts 351°
2026-04-26 09:10 -33.95970 151.17934 34 ft 125 kts 351°
2026-04-26 09:10 -33.95318 151.17781 33 ft 72 kts 351°
2026-04-26 09:10 -33.94869 151.17665 33 ft 61 kts 348°
2026-04-26 09:11 -33.94506 151.17531 33 ft 45 kts 329°
2026-04-26 09:11 -33.94392 151.17424 33 ft 0 kts 316°
2026-04-26 09:11 -33.94392 151.17423 33 ft 0 kts 316°
2026-04-26 09:13 -33.94387 151.17418 33 ft 1 kts 317°
2026-04-26 09:13 -33.94371 151.17401 33 ft 4 kts 319°
2026-04-26 09:13 -33.94342 151.17371 33 ft 6 kts 319°
2026-04-26 09:13 -33.94297 151.17329 33 ft 9 kts 328°
2026-04-26 09:14 -33.94230 151.17299 33 ft 11 kts 344°
2026-04-26 09:14 -33.94146 151.17273 33 ft 13 kts 346°
2026-04-26 09:14 -33.94046 151.17246 33 ft 12 kts 348°
2026-04-26 09:14 -33.93991 151.17204 33 ft 8 kts 295°
2026-04-26 09:15 -33.93993 151.17116 33 ft 11 kts 262°
2026-04-26 09:15 -33.94013 151.17035 33 ft 11 kts 252°
2026-04-26 09:15 -33.94040 151.16937 33 ft 13 kts 252°
2026-04-26 09:15 -33.94046 151.16843 33 ft 10 kts 284°
2026-04-26 09:16 -33.94025 151.16811 33 ft 5 kts 325°
2026-04-26 09:16 -33.93989 151.16803 33 ft 3 kts 24°
2026-04-26 09:16 -33.93967 151.16836 33 ft 5 kts 64°
2026-04-26 09:16 -33.93957 151.16876 33 ft 4 kts 72°
2026-04-26 09:17 -33.93955 151.16887 33 ft 0 kts 72°